TELSTAR 12V

导读

**Telstar 12V(别称Telstar 12 Vantage),是由加拿大Telesat公司运营的商用通信卫星,于2015年11月24日在日本种子岛航天中心,通过H-IIA运载火箭发射升空。卫星由空客防务与航天公司基于Eurostar-3000平台制造,发射质量约4900千克,定轨西经15°地球静止轨道,设计服役寿命超15年,目前仍在役,主要提供跨区域通信与广播电视传输服务。**

基本信息
目录编号:
41036
目录名称:
TELSTAR 12V
国际标识:
2015-068A
轨道中心:
EARTH
卫星名称:
TELSTAR 12V
卫星全名:
--
卫星状态:
在轨 (已飞行3858 天)
发射日期:
2015-11-24 UTC
国别 :
加拿大 (CA)
星等 :
--
轨道信息
数据来源 国际轨道数据 AOE轨道数据
星历时间 2026-06-17T03:47:14+0800
1天前
查看轨道信息
2026-06-17T08:00:00+0800
20小时前
查看轨道信息
半长轴 42164.953km 42164.981km
偏心率 0.0002139 0.0002158
轨道倾角 0.017° 0.013°
近地点辐角 73.459° 72.662°
升交点赤经 4.623° 3.231°
平近点角 108.817° 174.372°
近地点 35777.796km 35777.744km
远地点 35795.836km 35795.944km
周期 1436.108分钟 1436.110分钟
每日圈数 1.00271 1.002709
详细信息
使用方式:
暂无
2D轨道图
3D轨道图
轨道高度分析图
轨道倾角分析图
轨道综合分析图
查看轨道综合分析图